Weather History for KGED - November, 2011

Change the Weather History Date:

Sunday, November 13, 2011

  Actual Average Record
Temperature  
Mean Temperature 55 °F 49 °F  
Max Temperature 66 °F 59 °F 76 °F (1955)
Min Temperature 43 °F 39 °F 21 °F (1996)
Degree Days  
Heating Degree Days 10 16  
Month to date heating degree days 203 182  
Since 1 July heating degree days 446 468  
Cooling Degree Days 0 0  
Month to date cooling degree days 0 0  
Year to date cooling degree days 1597 1194  
Growing Degree Days 6 (Base 50)    
Moisture  
Dew Point 36 °F    
Average Humidity 50    
Maximum Humidity 76    
Minimum Humidity 24    
Precipitation  
Precipitation 0.00 in 0.10 in 2.77 in (1975)
Month to date precipitation 0.07 1.51  
Year to date precipitation 30.05 38.63  
Sea Level Pressure  
Sea Level Pressure 30.11 in    
Wind  
Wind Speed 14 mph (SSW)    
Max Wind Speed 25 mph    
Max Gust Speed 33 mph    
Visibility 10 miles    
Events      
T = Trace of Precipitation, MM = Missing Value Source: NWS Daily Summary

Daily Weather History Graph

Daily Weather History Graph

Search for Another Location

Airport or City:

Trip Planner

Search our weather history database for the weather conditions in past years. The results will help you decide how hot, cold, wet, or windy it might be!

Date:

Astronomy

Nov. 13, 2011 Rise Set
Actual Time 6:41 AM EST 4:49 PM EST
Civil Twilight 6:12 AM EST 5:18 PM EST
Nautical Twilight 5:40 AM EST 5:50 PM EST
Astronomical Twilight 5:09 AM EST 6:21 PM EST
Moon 6:57 PM EST (11/13) 9:10 AM EST (11/13)
Length of Visible Light 11h 05m
Length of Day
10h 08m
Waning Gibbous, 93% of the Moon is Illuminated
Nov 13
Waning Gibbous
Nov 18
Last Quarter
Nov 25
New
Dec 2
First Quarter
Dec 10
Full

Hourly Weather History & Observations

Time (EST) Temp. Windchill Dew Point Humidity Pressure Visibility Wind Dir Wind Speed Gust Speed Precip Events Conditions
12:54 AM 45.0 °F 41.8 °F 37.0 °F 74% 30.19 in 10.0 mi SSW 5.8 mph - N/A   Clear
1:54 AM 45.0 °F 41.8 °F 37.0 °F 74% 30.18 in 10.0 mi SSW 5.8 mph - N/A   Clear
3:54 AM 46.9 °F - 36.0 °F 66% 30.17 in 10.0 mi SSW 9.2 mph - N/A   Clear
4:54 AM 46.9 °F - 35.1 °F 63% 30.18 in 10.0 mi SSW 8.1 mph - N/A   Clear
5:54 AM 46.9 °F - 35.1 °F 63% 30.18 in 10.0 mi South 9.2 mph - N/A   Clear
7:54 AM 51.1 °F - 37.0 °F 59% 30.20 in 10.0 mi SSW 10.4 mph - N/A   Clear
8:54 AM 55.0 °F - 37.9 °F 53% 30.19 in 10.0 mi SSW 12.7 mph - N/A   Clear
9:54 AM 59.0 °F - 36.0 °F 42% 30.19 in 10.0 mi SSW 15.0 mph 25.3 mph N/A   Clear
11:54 AM 63.0 °F - 28.9 °F 28% 30.14 in 10.0 mi SW 23.0 mph 29.9 mph N/A   Clear
12:54 PM 64.9 °F - 27.0 °F 24% 30.09 in 10.0 mi SW 20.7 mph 27.6 mph N/A   Clear
1:54 PM 66.0 °F - 28.9 °F 25% 30.06 in 10.0 mi SW 15.0 mph 21.9 mph N/A   Clear
2:54 PM 63.0 °F - 30.0 °F 29% 30.06 in 10.0 mi SSW 16.1 mph 27.6 mph N/A   Clear
3:54 PM 62.1 °F - 30.9 °F 31% 30.07 in 10.0 mi SSW 16.1 mph 25.3 mph N/A   Clear
5:54 PM 61.0 °F - 37.9 °F 42% 30.06 in 10.0 mi SSW 13.8 mph - N/A   Clear
6:54 PM 62.1 °F - 39.9 °F 44% 30.06 in 10.0 mi SSW 15.0 mph - N/A   Clear
7:54 PM 62.1 °F - 39.0 °F 43% 30.06 in 10.0 mi SW 17.3 mph 25.3 mph N/A   Clear
8:54 PM 62.1 °F - 41.0 °F 46% 30.06 in 10.0 mi SW 18.4 mph 27.6 mph N/A   Clear
9:54 PM 62.1 °F - 41.0 °F 46% 30.06 in 10.0 mi SW 23.0 mph 33.4 mph N/A   Clear
10:54 PM 60.1 °F - 41.0 °F 49% 30.05 in 10.0 mi SW 19.6 mph 29.9 mph N/A   Clear
11:54 PM 60.1 °F - 42.1 °F 51% 30.05 in 10.0 mi SW 12.7 mph 21.9 mph N/A   Clear